Location: *
(51.1248°S, 108.4023°W)
Time: 04:47:34
(UTC+00:00)

Iridium 4 Rocket - Pass Details

Date: 15 June 2021
Orbit: 585 x 904 km, 86.9° (Epoch: 31 July)

Event Time Altitude Azimuth Distance (km) Brightness Sun altitude
Rises 13:43:10 0° 358° (N) 3,081 6.9 -13.6°
Reaches altitude 10° 13:45:20 10° 357° (N) 2,217 6.1 -13.3°
Maximum altitude 13:50:19 87° 266° (W) 789 3.5 -12.6°
Drops below altitude 10° 13:55:52 10° 177° (S) 2,459 5.9 -11.8°
Sets 13:58:23 0° 176° (S) 3,443 6.7 -11.4°
